Time,TemperatureF,DewpointF,PressureIn,WindDirection,WindDirectionDegrees,WindSpeedMPH,WindSpeedGustMPH,Humidity,HourlyPrecipIn,Conditions,Clouds,dailyrainin,SoftwareType,DateUTC
2013-04-08 00:13:00,59.0,38.0,29.73,West,269,12.0,-999.0,46,-99.99,,,0.00,weatherlink.com 1.10,2013-04-08 07:13:00,
2013-04-08 00:28:00,59.6,38.0,29.71,SW,234,14.0,-999.0,45,-99.99,,,0.00,weatherlink.com 1.10,2013-04-08 07:28:00,
2013-04-08 00:43:00,59.2,38.0,29.71,WSW,248,16.0,-999.0,46,-99.99,,,0.00,weatherlink.com 1.10,2013-04-08 07:43:00,
2013-04-08 00:58:00,58.3,39.0,29.70,South,189,3.0,-999.0,49,-99.99,,,0.00,weatherlink.com 1.10,2013-04-08 07:58:00,
2013-04-08 01:13:00,58.0,40.0,29.69,SW,214,14.0,-999.0,51,-99.99,,,0.00,weatherlink.com 1.10,2013-04-08 08:13:00,
2013-04-08 01:28:00,57.6,39.0,29.67,South,190,9.0,-999.0,51,-99.99,,,0.00,weatherlink.com 1.10,2013-04-08 08:28:00,
2013-04-08 01:43:00,56.5,40.0,29.67,WSW,247,13.0,-999.0,55,-99.99,,,0.00,weatherlink.com 1.10,2013-04-08 08:43:00,
2013-04-08 02:59:00,53.3,39.0,29.67,West,261,19.0,-999.0,59,-99.99,,,0.00,weatherlink.com 1.10,2013-04-08 09:59:00,
2013-04-08 03:14:00,52.3,39.0,29.67,West,269,18.0,-999.0,61,-99.99,,,0.00,weatherlink.com 1.10,2013-04-08 10:14:00,
2013-04-08 03:44:00,51.3,37.0,29.66,West,277,15.0,-999.0,59,-99.99,,,0.00,weatherlink.com 1.10,2013-04-08 10:44:00,
2013-04-08 03:59:00,51.0,37.0,29.66,West,268,21.0,-999.0,60,-99.99,,,0.00,weatherlink.com 1.10,2013-04-08 10:59:00,
2013-04-08 04:14:00,51.0,37.0,29.66,West,261,14.0,-999.0,59,-99.99,,,0.00,weatherlink.com 1.10,2013-04-08 11:14:00,
2013-04-08 04:29:00,50.5,36.0,29.66,West,275,16.0,-999.0,57,-99.99,,,0.00,weatherlink.com 1.10,2013-04-08 11:29:00,
2013-04-08 04:44:00,50.2,35.0,29.65,West,268,11.0,-999.0,57,-99.99,,,0.00,weatherlink.com 1.10,2013-04-08 11:44:00,
2013-04-08 04:59:00,50.1,35.0,29.65,WSW,245,10.0,-999.0,56,-99.99,,,0.00,weatherlink.com 1.10,2013-04-08 11:59:00,
2013-04-08 05:15:00,49.8,34.0,29.63,WSW,249,24.0,-999.0,56,-99.99,,,0.00,weatherlink.com 1.10,2013-04-08 12:15:00,
2013-04-08 05:30:00,49.5,34.0,29.62,West,265,17.0,-999.0,56,-99.99,,,0.00,weatherlink.com 1.10,2013-04-08 12:30:00,
2013-04-08 05:45:00,49.1,35.0,29.63,West,280,16.0,-999.0,58,-99.99,,,0.00,weatherlink.com 1.10,2013-04-08 12:45:00,
2013-04-08 06:00:00,48.8,34.0,29.62,West,265,14.0,-999.0,58,-99.99,,,0.00,weatherlink.com 1.10,2013-04-08 13:00:00,
2013-04-08 06:15:00,48.8,34.0,29.64,West,271,16.0,-999.0,57,-99.99,,,0.00,weatherlink.com 1.10,2013-04-08 13:15:00,
2013-04-08 06:45:00,49.4,31.0,29.64,WSW,248,14.0,-999.0,50,-99.99,,,0.00,weatherlink.com 1.10,2013-04-08 13:45:00,
2013-04-08 07:00:00,49.4,30.0,29.64,West,277,13.0,-999.0,47,-99.99,,,0.00,weatherlink.com 1.10,2013-04-08 14:00:00,
2013-04-08 07:15:00,49.2,28.0,29.65,WSW,246,29.0,-999.0,44,-99.99,,,0.00,weatherlink.com 1.10,2013-04-08 14:15:00,
2013-04-08 07:30:00,49.2,27.0,29.64,West,262,17.0,-999.0,42,-99.99,,,0.00,weatherlink.com 1.10,2013-04-08 14:30:00,
2013-04-08 07:45:00,49.9,26.0,29.64,SW,215,35.0,-999.0,40,-99.99,,,0.00,weatherlink.com 1.10,2013-04-08 14:45:00,
2013-04-08 08:01:00,47.0,25.0,29.66,West,277,23.0,-999.0,43,-99.99,,,0.00,weatherlink.com 1.10,2013-04-08 15:01:00,
2013-04-08 08:16:00,46.7,25.0,29.67,WSW,254,21.0,-999.0,43,-99.99,,,0.00,weatherlink.com 1.10,2013-04-08 15:16:00,
2013-04-08 09:16:00,47.0,26.0,29.71,SW,229,18.0,-999.0,44,-99.99,,,0.00,weatherlink.com 1.10,2013-04-08 16:16:00,
2013-04-08 09:31:00,47.6,26.0,29.71,SW,227,5.0,-999.0,43,-99.99,,,0.00,weatherlink.com 1.10,2013-04-08 16:31:00,
2013-04-08 09:46:00,48.2,27.0,29.68,WSW,249,17.0,-999.0,44,-99.99,,,0.00,weatherlink.com 1.10,2013-04-08 16:46:00,
2013-04-08 10:01:00,49.2,26.0,29.68,West,279,24.0,-999.0,40,-99.99,,,0.00,weatherlink.com 1.10,2013-04-08 17:01:00,
2013-04-08 10:31:00,51.6,25.0,29.66,NNW,336,25.0,-999.0,36,-99.99,,,0.00,weatherlink.com 1.10,2013-04-08 17:31:00,
2013-04-08 10:47:00,52.5,24.0,29.66,NNW,338,21.0,-999.0,33,-99.99,,,0.00,weatherlink.com 1.10,2013-04-08 17:47:00,
2013-04-08 11:02:00,54.7,22.0,29.66,NW,307,25.0,-999.0,28,-99.99,,,0.00,weatherlink.com 1.10,2013-04-08 18:02:00,
2013-04-08 11:17:00,54.2,21.0,29.65,WNW,300,25.0,-999.0,27,-99.99,,,0.00,weatherlink.com 1.10,2013-04-08 18:17:00,
2013-04-08 11:32:00,53.3,24.0,29.64,WNW,296,28.0,-999.0,32,-99.99,,,0.00,weatherlink.com 1.10,2013-04-08 18:32:00,
2013-04-08 11:47:00,53.9,22.0,29.61,NW,304,27.0,-999.0,29,-99.99,,,0.00,weatherlink.com 1.10,2013-04-08 18:47:00,
2013-04-08 12:02:00,53.6,25.0,29.62,WNW,290,33.0,-999.0,33,-99.99,,,0.00,weatherlink.com 1.10,2013-04-08 19:02:00,
2013-04-08 12:17:00,54.2,28.0,29.59,WNW,290,41.0,-999.0,36,-99.99,,,0.00,weatherlink.com 1.10,2013-04-08 19:17:00,
2013-04-08 12:32:00,54.4,28.0,29.60,WNW,295,44.0,-999.0,36,-99.99,,,0.00,weatherlink.com 1.10,2013-04-08 19:32:00,
2013-04-08 12:47:00,54.4,29.0,29.61,WNW,284,41.0,-999.0,38,-99.99,,,0.00,weatherlink.com 1.10,2013-04-08 19:47:00,
2013-04-08 13:02:00,53.2,30.0,29.63,WSW,238,26.0,-999.0,42,-99.99,,,0.00,weatherlink.com 1.10,2013-04-08 20:02:00,
2013-04-08 13:17:00,54.7,30.0,29.63,SSW,210,17.0,-999.0,39,-99.99,,,0.00,weatherlink.com 1.10,2013-04-08 20:17:00,
2013-04-08 13:32:00,55.6,25.0,29.63,WNW,302,17.0,-999.0,31,-99.99,,,0.00,weatherlink.com 1.10,2013-04-08 20:32:00,
2013-04-08 13:47:00,56.6,25.0,29.58,NW,310,40.0,-999.0,30,-99.99,,,0.00,weatherlink.com 1.10,2013-04-08 20:47:00,
2013-04-08 14:02:00,55.3,26.0,29.59,WNW,298,46.0,-999.0,32,-99.99,,,0.00,weatherlink.com 1.10,2013-04-08 21:02:00,
2013-04-08 14:18:00,55.9,28.0,29.60,NW,309,37.0,-999.0,34,-99.99,,,0.00,weatherlink.com 1.10,2013-04-08 21:18:00,
2013-04-08 14:33:00,53.9,30.0,29.61,NW,317,37.0,-999.0,41,-99.99,,,0.00,weatherlink.com 1.10,2013-04-08 21:33:00,
2013-04-08 14:48:00,53.5,30.0,29.62,WNW,296,34.0,-999.0,40,-99.99,,,0.00,weatherlink.com 1.10,2013-04-08 21:48:00,
2013-04-08 15:18:00,53.8,30.0,29.61,NW,313,37.0,-999.0,40,-99.99,,,0.00,weatherlink.com 1.10,2013-04-08 22:18:00,
2013-04-08 15:33:00,52.5,31.0,29.61,NW,315,40.0,-999.0,44,-99.99,,,0.00,weatherlink.com 1.10,2013-04-08 22:33:00,
2013-04-08 15:48:00,52.3,31.0,29.62,NW,310,40.0,-999.0,45,-99.99,,,0.00,weatherlink.com 1.10,2013-04-08 22:48:00,
2013-04-08 16:03:00,52.5,30.0,29.62,NNW,331,33.0,-999.0,42,-99.99,,,0.00,weatherlink.com 1.10,2013-04-08 23:03:00,
2013-04-08 16:18:00,53.5,29.0,29.62,NW,315,42.0,-999.0,39,-99.99,,,0.00,weatherlink.com 1.10,2013-04-08 23:18:00,
2013-04-08 16:33:00,53.3,28.0,29.63,NW,322,35.0,-999.0,38,-99.99,,,0.00,weatherlink.com 1.10,2013-04-08 23:33:00,
2013-04-08 16:48:00,53.9,28.0,29.63,NW,323,40.0,-999.0,37,-99.99,,,0.00,weatherlink.com 1.10,2013-04-08 23:48:00,
2013-04-08 17:03:00,53.9,28.0,29.64,NW,309,36.0,-999.0,37,-99.99,,,0.00,weatherlink.com 1.10,2013-04-09 00:03:00,
2013-04-08 17:19:00,53.5,28.0,29.66,NW,311,39.0,-999.0,38,-99.99,,,0.00,weatherlink.com 1.10,2013-04-09 00:19:00,
2013-04-08 18:04:00,51.7,29.0,29.66,NW,319,33.0,-999.0,42,-99.99,,,0.00,weatherlink.com 1.10,2013-04-09 01:04:00,
2013-04-08 18:19:00,51.7,28.0,29.67,NW,309,25.0,-999.0,40,-99.99,,,0.00,weatherlink.com 1.10,2013-04-09 01:19:00,
2013-04-08 18:34:00,51.6,28.0,29.68,NW,317,25.0,-999.0,41,-99.99,,,0.00,weatherlink.com 1.10,2013-04-09 01:34:00,
2013-04-08 18:49:00,51.0,29.0,29.68,NW,317,22.0,-999.0,43,-99.99,,,0.00,weatherlink.com 1.10,2013-04-09 01:49:00,
2013-04-08 19:04:00,50.8,28.0,29.70,NNW,335,31.0,-999.0,42,-99.99,,,0.00,weatherlink.com 1.10,2013-04-09 02:04:00,
2013-04-08 19:19:00,50.8,29.0,29.70,NNW,327,34.0,-999.0,43,-99.99,,,0.00,weatherlink.com 1.10,2013-04-09 02:19:00,
2013-04-08 19:34:00,50.8,29.0,29.71,NW,311,30.0,-999.0,44,-99.99,,,0.00,weatherlink.com 1.10,2013-04-09 02:34:00,
2013-04-08 19:49:00,50.5,31.0,29.72,NW,319,31.0,-999.0,47,-99.99,,,0.00,weatherlink.com 1.10,2013-04-09 02:49:00,
2013-04-08 20:04:00,50.5,31.0,29.74,NNW,343,27.0,-999.0,47,-99.99,,,0.00,weatherlink.com 1.10,2013-04-09 03:04:00,
2013-04-08 20:19:00,50.8,32.0,29.74,NW,321,21.0,-999.0,48,-99.99,,,0.00,weatherlink.com 1.10,2013-04-09 03:19:00,
2013-04-08 20:34:00,50.7,32.0,29.74,WNW,303,34.0,-999.0,49,-99.99,,,0.00,weatherlink.com 1.10,2013-04-09 03:34:00,
2013-04-08 20:50:00,50.7,32.0,29.74,NW,318,36.0,-999.0,49,-99.99,,,0.00,weatherlink.com 1.10,2013-04-09 03:50:00,
2013-04-08 21:05:00,50.7,31.0,29.75,NW,305,33.0,-999.0,48,-99.99,,,0.00,weatherlink.com 1.10,2013-04-09 04:05:00,
2013-04-08 21:20:00,50.7,32.0,29.76,NW,312,29.0,-999.0,49,-99.99,,,0.00,weatherlink.com 1.10,2013-04-09 04:20:00,
2013-04-08 21:35:00,50.7,32.0,29.76,NW,312,20.0,-999.0,49,-99.99,,,0.00,weatherlink.com 1.10,2013-04-09 04:35:00,
2013-04-08 21:50:00,50.7,32.0,29.77,NW,316,21.0,-999.0,49,-99.99,,,0.00,weatherlink.com 1.10,2013-04-09 04:50:00,
2013-04-08 22:05:00,50.5,32.0,29.78,NW,309,35.0,-999.0,49,-99.99,,,0.00,weatherlink.com 1.10,2013-04-09 05:05:00,
2013-04-08 22:20:00,50.4,32.0,29.78,WNW,292,25.0,-999.0,49,-99.99,,,0.00,weatherlink.com 1.10,2013-04-09 05:20:00,
2013-04-08 22:35:00,50.5,31.0,29.79,NW,311,16.0,-999.0,48,-99.99,,,0.00,weatherlink.com 1.10,2013-04-09 05:35:00,
2013-04-08 22:50:00,50.5,30.0,29.79,NW,308,29.0,-999.0,46,-99.99,,,0.00,weatherlink.com 1.10,2013-04-09 05:50:00,
2013-04-08 23:05:00,50.5,31.0,29.79,WNW,298,19.0,-999.0,47,-99.99,,,0.00,weatherlink.com 1.10,2013-04-09 06:05:00,
2013-04-08 23:20:00,49.9,31.0,29.80,WNW,302,20.0,-999.0,48,-99.99,,,0.00,weatherlink.com 1.10,2013-04-09 06:20:00,
2013-04-08 23:35:00,49.6,30.0,29.80,WNW,294,29.0,-999.0,48,-99.99,,,0.00,weatherlink.com 1.10,2013-04-09 06:35:00,
2013-04-08 23:50:00,49.5,30.0,29.80,NW,309,22.0,-999.0,48,-99.99,,,0.00,weatherlink.com 1.10,2013-04-09 06:50:00,